Temp
61 61 61 61 60 61 61 61 59 59 61 62 61 61 61 61 61 61 61 61 61 61 61 62 62 62 62 62 62 62 62 62 62 61 60 61 62 62 62 62 62 62 62 62 61 61 61 60 60 60 60 60 60 61 63 66 66 66 66 67 66 65 64 63 62 61 60 60 60
61 60 60 57 57 59 61 60 59 59 60 61 61 61 61 61 61 61 61 61 61 61 61 62 61 61 61 61 61 61 62 62 62 61 61 61 62 62 62 62 62 62 62 62 61 61 61 60 60 60 60 60 60 61 64 67 67 65 65 65 66 66 64 63 61 60 60 59 59
61 61 60 60 60 60 61 60 60 60 60 60 61 61 60 60 61 61 61 61 61 61 61 61 61 61 61 61 61 62 62 62 62 62 62 62 62 62 62 62 62 62 61 62 62 61 61 60 60 59 59 60 61 62 64 66 64 64 64 64 66 65 64 62 60 60 59 59 58
61 61 61 61 61 61 61 61 60 60 60 60 60 60 60 61 61 61 61 61 61 61 61 62 62 61 61 61 61 62 61 61 61 62 62 62 62 62 62 62 62 62 62 62 62 61 61 60 60 60 60 60 61 63 65 66 64 63 63 64 64 63 62 61 59 59 59 59 58
61 61 62 62 61 61 61 61 61 61 60 61 60 60 60 61 61 61 61 61 61 61 62 62 62 62 62 61 62 62 62 61 59 60 62 62 62 62 62 62 62 62 62 62 62 61 61 60 60 60 60 60 60 61 63 65 63 62 63 63 62 61 60 59 58 58 58 58 57
60 61 61 62 62 62 61 61 61 61 61 61 60 60 60 60 61 61 61 61 61 61 62 61 61 61 61 62 62 62 62 62 61 61 62 62 62 62 62 62 62 62 62 62 62 61 61 60 60 60 60 60 60 60 61 62 61 61 62 61 60 59 59 58 58 58 58 57 57
60 60 60 61 61 61 61 61 61 61 61 61 61 60 60 61 61 61 61 61 61 61 61 60 60 60 61 62 62 62 62 62 62 62 62 62 62 62 62 62 62 62 62 62 62 61 61 60 60 59 59 58 59 60 60 60 60 60 59 59 59 59 58 58 58 58 57 57 57
59 59 59 60 61 61 61 61 61 61 61 61 61 61 61 61 61 61 61 61 61 61 61 61 62 62 62 62 62 62 62 62 62 62 62 62 62 62 62 62 62 62 62 62 62 61 60 60 60 60 60 59 59 59 59 59 59 59 58 58 58 58 58 58 58 58 57 57 57
59 59 59 59 60 61 61 61 61 61 61 61 61 62 62 62 62 62 61 61 61 61 61 62 62 62 62 62 62 62 62 62 62 62 62 62 62 61 62 62 62 62 62 62 62 61 60 60 60 60 60 60 59 59 59 59 59 58 58 58 57 57 58 58 58 58 57 57 57
59 60 59 59 59 60 61 61 61 61 61 61 61 61 60 58 60 61 62 61 61 61 62 62 62 62 62 62 62 62 62 62 62 62 62 61 61 61 61 61 61 62 62 62 62 61 60 60 59 59 59 60 59 59 59 58 58 58 58 57 57 57 57 58 57 57 57 57 57
59 60 60 59 60 60 60 60 60 60 60 61 61 61 60 58 60 61 62 62 62 62 62 63 63 62 62 62 62 62 62 62 62 62 62 61 61 61 62 62 62 62 62 62 61 61 60 59 59 59 59 59 59 59 58 58 58 58 58 57 57 57 57 57 57 57 57 57 57
59 59 60 60 60 60 60 60 60 60 60 60 61 61 61 61 61 61 61 61 61 62 62 63 63 62 62 62 62 62 62 62 62 62 62 62 62 62 62 62 62 62 62 62 61 61 60 59 59 58 58 59 59 58 58 58 58 58 57 57 57 57 57 57 57 57 57 57 57
59 59 60 60 60 60 60 60 60 60 60 60 60 61 61 61 60 60 60 61 61 61 62 62 62 62 62 62 62 62 62 62 62 62 62 62 62 62 62 62 62 62 62 62 61 60 60 59 59 58 58 58 58 58 58 58 58 57 57 56 57 57 57 57 57 57 57 57 57
59 59 60 60 60 60 60 59 60 60 60 60 60 60 61 61 60 60 60 61 61 61 62 62 61 61 62 62 62 62 62 62 62 62 62 61 62 62 62 62 62 62 62 62 61 60 59 59 58 58 58 58 58 58 58 58 58 57 57 56 56 57 57 57 57 57 57 57 56
59 59 59 59 59 59 59 59 59 59 59 59 60 60 60 61 60 59 60 61 61 61 62 62 61 61 61 62 62 62 62 62 62 62 61 61 61 62 62 61 61 61 61 61 61 60 59 59 58 58 58 58 58 58 58 58 58 57 57 57 57 57 57 57 57 57 57 56 56
59 59 59 59 59 59 59 59 58 58 58 59 59 59 60 60 60 59 59 60 61 61 61 62 62 62 61 61 61 62 62 62 61 61 61 61 61 61 61 61 61 61 61 61 60 60 59 59 59 59 58 58 58 58 58 58 58 57 57 57 57 57 57 56 57 57 56 56 56
58 58 59 59 58 58 58 58 58 58 58 58 59 59 59 59 59 58 58 58 60 61 61 61 61 61 61 60 60 61 61 61 61 61 61 61 61 61 61 61 61 61 61 61 60 59 59 58 58 58 58 58 58 58 58 58 58 57 57 57 57 57 57 56 56 56 56 56 56
58 58 58 58 58 58 58 58 58 58 58 58 58 58 59 59 59 58 58 58 59 60 61 61 61 61 60 60 60 60 60 61 61 61 61 61 61 61 61 60 60 60 60 60 60 59 58 58 58 58 58 58 58 58 58 58 57 57 57 57 57 57 57 56 56 56 56 56 56
58 58 58 58 58 58 57 57 57 57 58 58 58 58 58 59 59 59 58 58 58 59 60 60 60 60 60 60 60 59 59 60 60 60 61 61 61 61 60 60 60 60 60 59 59 59 58 58 58 58 58 58 58 58 57 57 57 57 57 57 57 57 57 57 57 57 57 56 56
58 58 58 58 58 58 57 57 57 58 58 58 58 58 58 59 59 59 59 59 58 59 59 59 59 59 59 59 59 59 59 59 60 60 60 60 60 60 60 60 59 59 59 59 58 58 58 58 58 58 57 57 57 57 57 57 57 57 57 57 57 57 57 57 56 56 56 56 55
58 58 58 57 58 58 58 58 58 58 58 58 58 58 58 58 59 59 59 58 58 59 59 59 59 58 58 59 59 59 59 58 59 59 59 59 59 59 59 59 59 59 58 58 58 58 57 57 57 57 57 57 57 57 56 56 56 56 56 56 56 56 56 55 55 55 54 54 53
58 58 57 57 58 58 58 58 58 58 58 58 58 58 58 58 58 59 59 59 59 59 59 58 58 58 58 58 58 58 58 58 58 58 58 58 58 58 58 58 58 58 58 58 57 57 57 57 57 57 57 57 56 56 56 56 56 56 55 55 54 54 53 53 52 51 50 50 49
58 57 57 57 57 57 56 57 58 58 58 58 58 58 58 58 58 58 59 59 58 58 58 58 58 58 58 58 58 58 58 58 58 58 58 58 58 57 57 57 57 57 57 57 57 57 57 57 57 57 57 57 56 56 55 55 54 54 53 52 51 50 49 49 48 48 47 47 46
57 57 57 57 57 57 57 57 58 58 57 58 58 58 58 58 58 58 58 58 58 58 58 58 58 58 58 58 58 58 58 57 57 57 57 57 57 57 57 57 57 57 57 57 56 56 56 56 57 57 56 56 55 55 54 53 52 51 50 49 48 47 46 46 46 46 46 45 45
56 56 56 57 57 57 57 57 57 57 57 57 58 58 58 58 58 58 58 58 58 58 58 58 58 58 58 58 58 58 57 57 57 56 56 56 56 57 57 57 57 56 56 54 50 49 50 52 54 55 56 55 54 53 52 51 50 49 48 47 46 46 45 45 45 45 45 45 44
56 56 56 56 56 56 56 56 56 57 57 57 58 58 58 58 58 58 57 57 57 57 57 58 57 57 56 57 57 57 57 57 56 56 56 56 56 56 56 56 56 55 54 49 45 45 46 48 49 51 52 54 52 51 50 49 48 48 47 46 46 46 45 44 44 44 44 44 44
56 56 56 56 56 56 56 56 56 56 57 57 57 57 58 58 58 57 57 56 57 57 57 57 56 55 54 57 57 56 56 56 56 56 56 56 56 56 56 56 55 54 50 44 43 43 44 45 46 47 49 52 51 49 48 47 47 46 46 46 46 45 45 44 44 43 44 44 44
55 55 56 56 56 56 56 56 56 56 56 57 57 57 57 57 57 57 56 56 56 56 56 56 56 56 56 56 56 56 56 56 56 56 56 56 56 55 55 55 53 50 46 43 43 43 44 44 45 45 46 47 49 48 47 47 46 46 46 45 45 45 44 44 44 44 43 43 44
55 55 55 55 55 55 55 56 56 56 56 56 56 57 57 56 56 56 56 56 56 56 56 56 56 56 56 56 56 56 55 55 55 55 55 54 54 53 53 51 48 45 42 42 43 43 43 43 43 44 44 45 47 48 47 47 46 46 46 45 45 45 44 44 44 44 44 44 43
55 55 55 55 55 55 55 55 56 56 56 56 56 56 56 56 56 56 56 56 56 56 56 56 56 56 55 55 55 55 54 54 54 53 52 52 51 50 49 47 46 44 43 42 43 43 43 43 43 43 43 44 46 47 47 47 46 46 45 45 45 45 44 44 44 44 44 44 43
55 55 55 55 55 55 55 55 55 56 56 56 56 56 56 55 55 55 55 55 55 55 55 55 55 55 54 54 54 53 53 52 52 51 50 49 48 47 46 46 45 44 42 42 42 43 43 43 43 43 43 44 45 46 47 47 46 46 46 45 45 45 45 45 45 44 44 44 43
55 55 55 54 54 54 55 55 55 55 56 56 56 55 55 55 55 55 55 55 54 54 54 54 53 53 52 52 51 51 50 50 49 49 48 48 47 46 46 45 45 44 42 42 42 42 43 43 42 42 42 43 44 45 46 45 45 44 44 44 44 45 45 45 45 45 44 44 43
55 55 54 54 54 54 54 55 55 55 55 55 55 55 54 54 54 54 54 54 53 53 53 52 51 51 50 50 49 49 48 48 47 47 46 46 46 46 46 45 45 43 42 41 42 42 42 42 41 41 41 41 42 43 43 42 42 41 40 40 40 41 42 43 44 44 44 44 44
55 55 54 54 54 54 54 54 54 55 55 55 54 54 54 53 53 53 52 52 52 51 51 50 50 49 49 49 48 48 47 47 47 47 47 46 46 46 45 45 45 43 41 41 41 41 41 41 41 40 40 40 41 42 41 40 40 39 38 38 38 38 39 39 40 41 42 43 43
55 55 54 54 54 54 54 53 54 54 54 54 54 53 53 52 52 51 51 50 50 50 50 49 49 49 48 48 48 47 47 46 46 46 46 46 45 44 44 44 43 42 41 41 41 41 41 41 40 40 40 40 40 40 40 39 38 37 37 37 37 37 37 38 38 39 40 41 41
55 55 54 54 54 54 53 53 53 53 53 53 53 52 52 52 51 51 50 49 49 49 49 48 48 48 47 47 47 47 46 46 46 46 45 45 44 44 43 42 42 41 40 40 41 41 40 40 40 40 40 40 40 39 38 37 36 36 35 35 35 35 35 36 37 37 38 39 40
56 55 55 54 54 54 53 53 53 53 53 53 52 52 51 51 51 50 50 49 49 48 48 47 47 47 46 46 46 46 46 46 46 45 45 44 43 43 42 41 41 40 39 40 40 40 40 40 40 39 39 39 38 37 37 36 35 34 34 33 33 33 34 34 34 35 36 37 37
56 56 55 55 54 54 53 53 53 53 53 52 52 52 51 51 50 50 49 48 48 48 47 47 46 46 46 46 46 46 46 46 45 44 44 43 43 42 41 40 40 39 39 39 39 40 40 39 39 39 39 38 37 36 36 35 34 33 32 32 32 32 32 32 33 33 33 34 35
57 57 56 55 55 54 54 53 53 53 52 52 52 51 51 50 50 49 49 48 48 47 46 46 45 45 45 45 45 44 44 44 44 44 43 43 42 41 40 40 39 39 38 38 39 39 39 39 39 38 38 37 37 36 35 34 33 32 31 31 30 30 31 31 31 31 32 32 34
58 57 57 56 56 55 54 53 53 53 53 52 51 50 50 49 48 48 48 47 47 46 45 44 44 44 43 42 42 42 42 42 42 42 42 41 41 40 39 39 39 38 38 38 39 39 39 39 39 38 38 37 37 36 35 34 32 31 31 30 30 30 30 30 30 30 30 31 32
58 58 57 57 56 56 55 54 53 53 52 51 50 49 48 48 47 47 47 46 45 45 44 43 42 42 41 40 40 40 39 39 39 40 40 39 39 39 39 39 38 38 38 39 39 39 39 39 39 38 38 37 36 36 35 33 32 31 30 30 29 29 29 29 29 29 29 29 30
MSLP
1001.09 1001.25 1001.41 1001.61 1001.77 1001.97 1002.21 1002.37 1002.61 1002.77 1002.93 1003.13 1003.33 1003.49 1003.73 1003.97 1004.21 1004.45 1004.57 1004.65 1004.77 1004.93 1005.05 1005.21 1005.37 1005.65 1005.85 1006.09 1006.29 1006.49 1006.65 1006.85 1007.13 1007.41 1007.65 1007.93 1008.21 1008.45 1008.61 1008.61 1008.73 1008.85 1009.01 1009.17 1009.37 1009.61 1009.77 1009.97 1010.21 1010.49 1010.77 1011.09 1011.37 1011.61 1011.77 1011.85 1011.85 1011.93 1012.01 1012.17 1012.37 1012.61 1012.81 1013.05 1013.29 1013.57 1013.89 1014.17 1014.45
1001.01 1001.21 1001.41 1001.61 1001.77 1001.93 1002.13 1002.33 1002.57 1002.77 1002.93 1003.05 1003.21 1003.45 1003.73 1004.05 1004.29 1004.41 1004.49 1004.57 1004.65 1004.77 1004.93 1005.09 1005.33 1005.61 1005.89 1006.09 1006.29 1006.49 1006.61 1006.77 1007.05 1007.25 1007.49 1007.77 1008.05 1008.21 1008.33 1008.41 1008.53 1008.65 1008.77 1008.89 1009.05 1009.29 1009.49 1009.77 1010.01 1010.25 1010.49 1010.77 1011.05 1011.25 1011.37 1011.37 1011.45 1011.61 1011.77 1011.93 1012.17 1012.41 1012.69 1012.93 1013.09 1013.37 1013.65 1013.97 1014.33
1000.85 1001.09 1001.33 1001.49 1001.69 1001.85 1002.01 1002.21 1002.45 1002.69 1002.89 1003.05 1003.21 1003.49 1003.81 1004.05 1004.21 1004.29 1004.37 1004.45 1004.57 1004.73 1004.93 1005.05 1005.25 1005.49 1005.81 1006.05 1006.29 1006.49 1006.61 1006.77 1006.93 1007.17 1007.37 1007.61 1007.85 1007.97 1008.05 1008.17 1008.33 1008.45 1008.53 1008.61 1008.77 1009.01 1009.29 1009.53 1009.73 1009.93 1010.21 1010.41 1010.65 1010.85 1010.93 1010.97 1011.09 1011.29 1011.49 1011.73 1011.93 1012.21 1012.53 1012.77 1013.05 1013.29 1013.57 1013.89 1014.21
1000.69 1000.93 1001.13 1001.33 1001.49 1001.65 1001.81 1002.01 1002.29 1002.57 1002.77 1002.97 1003.25 1003.57 1003.85 1003.97 1004.05 1004.21 1004.33 1004.41 1004.53 1004.65 1004.81 1004.93 1005.05 1005.33 1005.65 1005.93 1006.13 1006.29 1006.41 1006.61 1006.89 1007.09 1007.29 1007.45 1007.57 1007.73 1007.81 1007.93 1008.05 1008.13 1008.25 1008.33 1008.57 1008.85 1009.17 1009.45 1009.61 1009.73 1009.89 1010.13 1010.33 1010.49 1010.57 1010.65 1010.81 1011.05 1011.33 1011.53 1011.77 1012.05 1012.37 1012.61 1012.93 1013.17 1013.37 1013.73 1014.05
1000.65 1000.77 1000.93 1001.09 1001.29 1001.45 1001.65 1001.85 1002.21 1002.53 1002.77 1002.97 1003.29 1003.57 1003.77 1003.93 1003.97 1004.09 1004.29 1004.45 1004.49 1004.53 1004.57 1004.69 1004.93 1005.13 1005.37 1005.65 1005.93 1006.05 1006.21 1006.45 1006.77 1007.01 1007.09 1007.21 1007.25 1007.37 1007.57 1007.69 1007.77 1007.93 1008.01 1008.09 1008.33 1008.61 1009.05 1009.41 1009.53 1009.53 1009.65 1009.89 1010.21 1010.33 1010.45 1010.49 1010.69 1010.93 1011.17 1011.45 1011.69 1011.93 1012.21 1012.53 1012.85 1013.05 1013.29 1013.61 1013.97
1000.65 1000.77 1000.85 1000.97 1001.13 1001.33 1001.53 1001.85 1002.21 1002.49 1002.73 1002.93 1003.21 1003.49 1003.65 1003.77 1003.93 1004.05 1004.21 1004.33 1004.33 1004.33 1004.49 1004.61 1004.77 1004.93 1005.09 1005.33 1005.49 1005.61 1005.77 1005.97 1006.21 1006.41 1006.53 1006.65 1006.77 1006.93 1007.21 1007.37 1007.49 1007.57 1007.65 1007.77 1008.05 1008.41 1008.85 1009.21 1009.33 1009.33 1009.45 1009.77 1010.05 1010.33 1010.49 1010.61 1010.77 1010.93 1011.17 1011.45 1011.65 1011.81 1012.05 1012.41 1012.69 1012.93 1013.21 1013.49 1013.85
1000.65 1000.73 1000.85 1000.97 1001.09 1001.21 1001.49 1001.77 1002.09 1002.33 1002.57 1002.77 1002.97 1003.21 1003.33 1003.49 1003.65 1003.77 1003.85 1003.93 1004.01 1004.09 1004.21 1004.41 1004.49 1004.61 1004.77 1004.93 1005.01 1005.13 1005.25 1005.45 1005.61 1005.81 1005.97 1006.13 1006.25 1006.49 1006.69 1006.89 1007.01 1007.13 1007.25 1007.41 1007.69 1008.05 1008.49 1008.81 1008.97 1009.05 1009.21 1009.57 1009.89 1010.21 1010.49 1010.69 1010.85 1011.01 1011.21 1011.45 1011.61 1011.77 1012.05 1012.33 1012.57 1012.81 1013.09 1013.33 1013.61
1000.61 1000.73 1000.81 1000.93 1000.97 1001.13 1001.37 1001.69 1001.93 1002.17 1002.33 1002.49 1002.61 1002.73 1002.89 1003.01 1003.17 1003.29 1003.41 1003.53 1003.65 1003.77 1003.89 1004.01 1004.13 1004.25 1004.41 1004.57 1004.73 1004.85 1005.01 1005.17 1005.33 1005.49 1005.65 1005.81 1006.01 1006.21 1006.37 1006.57 1006.69 1006.77 1006.89 1007.05 1007.33 1007.69 1008.05 1008.37 1008.49 1008.61 1008.85 1009.17 1009.53 1009.89 1010.21 1010.45 1010.73 1010.93 1011.17 1011.37 1011.61 1011.77 1011.97 1012.21 1012.45 1012.69 1012.93 1013.13 1013.33
1000.61 1000.73 1000.81 1000.89 1000.93 1001.09 1001.33 1001.57 1001.77 1001.93 1002.05 1002.17 1002.21 1002.33 1002.53 1002.69 1002.85 1003.01 1003.17 1003.33 1003.41 1003.49 1003.65 1003.77 1003.89 1004.01 1004.17 1004.33 1004.49 1004.61 1004.77 1004.93 1005.05 1005.25 1005.45 1005.57 1005.77 1006.01 1006.21 1006.37 1006.49 1006.57 1006.69 1006.81 1007.05 1007.37 1007.69 1008.01 1008.21 1008.29 1008.41 1008.61 1008.97 1009.37 1009.77 1010.13 1010.49 1010.77 1011.05 1011.33 1011.53 1011.77 1011.93 1012.17 1012.37 1012.57 1012.73 1012.89 1013.05
1000.61 1000.69 1000.81 1000.93 1001.01 1001.09 1001.25 1001.45 1001.61 1001.77 1001.89 1002.01 1002.13 1002.25 1002.41 1002.57 1002.65 1002.81 1002.93 1003.05 1003.21 1003.33 1003.49 1003.53 1003.65 1003.77 1003.97 1004.09 1004.21 1004.37 1004.49 1004.65 1004.81 1004.97 1005.17 1005.33 1005.49 1005.73 1005.97 1006.21 1006.29 1006.41 1006.49 1006.61 1006.85 1007.13 1007.41 1007.69 1007.93 1008.09 1008.21 1008.33 1008.57 1008.93 1009.33 1009.77 1010.17 1010.53 1010.89 1011.17 1011.41 1011.65 1011.89 1012.09 1012.29 1012.41 1012.57 1012.69 1012.93
1000.61 1000.73 1000.81 1000.93 1001.05 1001.17 1001.29 1001.41 1001.57 1001.69 1001.81 1001.93 1002.05 1002.21 1002.33 1002.49 1002.57 1002.65 1002.77 1002.89 1003.05 1003.17 1003.21 1003.25 1003.41 1003.57 1003.69 1003.81 1003.97 1004.09 1004.21 1004.37 1004.53 1004.69 1004.89 1005.05 1005.21 1005.41 1005.65 1005.89 1006.05 1006.17 1006.25 1006.37 1006.61 1006.89 1007.17 1007.41 1007.65 1007.85 1008.01 1008.17 1008.33 1008.61 1009.05 1009.45 1009.89 1010.33 1010.73 1011.05 1011.25 1011.49 1011.69 1011.93 1012.09 1012.25 1012.37 1012.57 1012.89
1000.61 1000.73 1000.81 1000.93 1001.05 1001.21 1001.33 1001.45 1001.57 1001.69 1001.81 1001.93 1002.01 1002.13 1002.29 1002.37 1002.45 1002.57 1002.65 1002.77 1002.85 1002.89 1002.93 1003.05 1003.13 1003.25 1003.37 1003.53 1003.65 1003.81 1004.01 1004.13 1004.29 1004.45 1004.61 1004.77 1004.93 1005.09 1005.33 1005.53 1005.69 1005.85 1005.97 1006.13 1006.33 1006.65 1006.93 1007.17 1007.41 1007.65 1007.81 1007.97 1008.17 1008.41 1008.77 1009.17 1009.65 1010.17 1010.57 1010.89 1011.05 1011.21 1011.45 1011.69 1011.85 1012.05 1012.21 1012.49 1012.97
1000.57 1000.73 1000.81 1000.93 1001.05 1001.21 1001.33 1001.45 1001.49 1001.65 1001.73 1001.81 1001.93 1002.01 1002.13 1002.21 1002.33 1002.49 1002.57 1002.65 1002.69 1002.73 1002.77 1002.89 1002.93 1003.01 1003.09 1003.25 1003.37 1003.57 1003.73 1003.93 1004.01 1004.21 1004.37 1004.53 1004.69 1004.89 1005.05 1005.25 1005.41 1005.53 1005.69 1005.89 1006.09 1006.41 1006.69 1006.93 1007.17 1007.37 1007.65 1007.81 1007.97 1008.21 1008.49 1008.93 1009.41 1009.93 1010.33 1010.61 1010.77 1010.97 1011.17 1011.33 1011.57 1011.81 1012.13 1012.57 1013.05
1000.53 1000.69 1000.77 1000.93 1001.05 1001.21 1001.29 1001.33 1001.45 1001.53 1001.61 1001.69 1001.77 1001.89 1001.97 1002.05 1002.21 1002.33 1002.41 1002.49 1002.53 1002.61 1002.65 1002.73 1002.81 1002.89 1002.93 1003.01 1003.13 1003.25 1003.45 1003.61 1003.77 1003.97 1004.13 1004.25 1004.45 1004.61 1004.77 1004.97 1005.13 1005.29 1005.45 1005.65 1005.93 1006.21 1006.49 1006.73 1006.93 1007.17 1007.41 1007.65 1007.81 1008.05 1008.33 1008.73 1009.21 1009.65 1010.05 1010.33 1010.53 1010.73 1010.93 1011.13 1011.33 1011.69 1012.13 1012.65 1013.09
1000.57 1000.69 1000.81 1000.97 1001.05 1001.17 1001.21 1001.33 1001.37 1001.49 1001.53 1001.61 1001.65 1001.77 1001.85 1001.93 1002.05 1002.17 1002.25 1002.33 1002.37 1002.45 1002.49 1002.61 1002.65 1002.73 1002.77 1002.81 1002.93 1003.01 1003.17 1003.33 1003.53 1003.69 1003.85 1004.01 1004.21 1004.37 1004.53 1004.69 1004.85 1005.01 1005.21 1005.45 1005.73 1006.01 1006.29 1006.53 1006.73 1006.93 1007.21 1007.49 1007.73 1007.93 1008.21 1008.65 1009.09 1009.53 1009.93 1010.17 1010.37 1010.57 1010.77 1010.97 1011.25 1011.65 1012.13 1012.61 1013.05
1000.61 1000.77 1000.89 1000.97 1001.05 1001.13 1001.21 1001.29 1001.33 1001.41 1001.49 1001.53 1001.61 1001.65 1001.77 1001.81 1001.93 1002.01 1002.09 1002.17 1002.21 1002.29 1002.33 1002.45 1002.49 1002.53 1002.61 1002.65 1002.77 1002.81 1002.93 1003.09 1003.25 1003.41 1003.57 1003.77 1003.93 1004.09 1004.25 1004.45 1004.61 1004.77 1004.97 1005.25 1005.53 1005.81 1006.09 1006.33 1006.57 1006.77 1007.01 1007.29 1007.57 1007.85 1008.17 1008.61 1009.05 1009.53 1009.89 1010.17 1010.37 1010.49 1010.65 1010.89 1011.21 1011.65 1012.05 1012.49 1012.93
1000.65 1000.77 1000.89 1000.97 1001.05 1001.17 1001.21 1001.29 1001.33 1001.41 1001.49 1001.49 1001.57 1001.65 1001.69 1001.77 1001.85 1001.93 1002.01 1002.05 1002.13 1002.17 1002.21 1002.21 1002.29 1002.33 1002.45 1002.49 1002.61 1002.65 1002.77 1002.89 1003.01 1003.17 1003.33 1003.49 1003.65 1003.85 1004.05 1004.21 1004.37 1004.57 1004.81 1005.13 1005.37 1005.69 1005.97 1006.21 1006.49 1006.69 1006.93 1007.17 1007.45 1007.73 1008.09 1008.57 1009.05 1009.53 1009.93 1010.21 1010.41 1010.53 1010.65 1010.89 1011.25 1011.69 1012.17 1012.57 1012.93
1000.65 1000.77 1000.93 1000.97 1001.05 1001.13 1001.21 1001.25 1001.33 1001.37 1001.45 1001.49 1001.57 1001.65 1001.69 1001.73 1001.81 1001.89 1001.93 1002.01 1002.01 1002.05 1002.05 1002.05 1002.13 1002.21 1002.25 1002.33 1002.37 1002.49 1002.61 1002.69 1002.77 1002.93 1003.05 1003.25 1003.45 1003.65 1003.85 1004.01 1004.21 1004.45 1004.69 1004.97 1005.21 1005.53 1005.81 1006.09 1006.37 1006.61 1006.85 1007.05 1007.33 1007.65 1008.05 1008.53 1009.05 1009.49 1009.89 1010.21 1010.41 1010.53 1010.73 1011.01 1011.41 1011.85 1012.33 1012.73 1013.05
1000.65 1000.77 1000.93 1000.97 1001.05 1001.09 1001.21 1001.25 1001.33 1001.37 1001.45 1001.49 1001.61 1001.69 1001.77 1001.77 1001.81 1001.85 1001.89 1001.93 1001.93 1001.93 1001.93 1001.97 1002.05 1002.05 1002.13 1002.17 1002.25 1002.37 1002.49 1002.53 1002.65 1002.77 1002.93 1003.09 1003.29 1003.49 1003.69 1003.93 1004.17 1004.37 1004.61 1004.89 1005.13 1005.41 1005.69 1005.97 1006.25 1006.49 1006.73 1006.97 1007.33 1007.73 1008.13 1008.61 1009.09 1009.53 1009.93 1010.17 1010.37 1010.57 1010.85 1011.21 1011.65 1012.05 1012.45 1012.77 1013.05
1000.65 1000.77 1000.89 1000.93 1001.01 1001.09 1001.17 1001.21 1001.33 1001.37 1001.49 1001.57 1001.65 1001.73 1001.77 1001.81 1001.81 1001.85 1001.89 1001.89 1001.93 1001.93 1001.93 1002.01 1002.05 1002.05 1002.09 1002.13 1002.21 1002.33 1002.41 1002.49 1002.61 1002.77 1002.89 1003.05 1003.21 1003.45 1003.65 1003.93 1004.17 1004.41 1004.65 1004.93 1005.17 1005.41 1005.65 1005.93 1006.17 1006.37 1006.61 1006.93 1007.33 1007.77 1008.25 1008.73 1009.25 1009.65 1009.97 1010.21 1010.33 1010.61 1011.01 1011.45 1011.85 1012.25 1012.61 1012.93 1013.21
1000.65 1000.77 1000.89 1000.93 1001.05 1001.09 1001.17 1001.25 1001.33 1001.45 1001.49 1001.61 1001.69 1001.77 1001.81 1001.85 1001.89 1001.93 1001.93 1001.93 1001.97 1002.01 1002.05 1002.05 1002.09 1002.13 1002.17 1002.21 1002.25 1002.37 1002.49 1002.57 1002.69 1002.81 1002.93 1003.09 1003.29 1003.49 1003.69 1003.93 1004.21 1004.49 1004.73 1004.97 1005.21 1005.45 1005.69 1005.97 1006.17 1006.33 1006.61 1006.97 1007.33 1007.77 1008.29 1008.89 1009.41 1009.81 1010.09 1010.25 1010.45 1010.77 1011.21 1011.65 1012.05 1012.49 1012.77 1013.09 1013.37
1000.69 1000.81 1000.93 1001.01 1001.05 1001.13 1001.21 1001.33 1001.45 1001.49 1001.61 1001.69 1001.77 1001.81 1001.89 1001.93 1001.93 1001.97 1001.97 1001.97 1002.05 1002.09 1002.17 1002.21 1002.21 1002.25 1002.29 1002.33 1002.41 1002.49 1002.61 1002.73 1002.81 1002.93 1003.09 1003.33 1003.49 1003.69 1003.89 1004.09 1004.29 1004.53 1004.81 1005.05 1005.33 1005.57 1005.81 1006.05 1006.29 1006.49 1006.77 1007.17 1007.57 1007.93 1008.45 1009.05 1009.57 1009.97 1010.21 1010.37 1010.65 1011.05 1011.53 1011.93 1012.33 1012.69 1012.97 1013.29 1013.61
1000.77 1000.89 1001.01 1001.09 1001.17 1001.25 1001.33 1001.41 1001.49 1001.61 1001.65 1001.77 1001.81 1001.93 1001.93 1002.01 1002.05 1002.05 1002.05 1002.09 1002.13 1002.21 1002.29 1002.33 1002.37 1002.41 1002.45 1002.49 1002.57 1002.69 1002.81 1002.93 1003.01 1003.13 1003.33 1003.53 1003.77 1003.97 1004.17 1004.29 1004.49 1004.69 1004.93 1005.25 1005.49 1005.77 1006.05 1006.33 1006.57 1006.85 1007.13 1007.49 1007.81 1008.21 1008.73 1009.29 1009.81 1010.17 1010.41 1010.69 1011.05 1011.53 1011.97 1012.33 1012.61 1012.93 1013.21 1013.53 1013.89
1000.85 1000.97 1001.09 1001.21 1001.29 1001.33 1001.41 1001.49 1001.57 1001.65 1001.77 1001.81 1001.93 1001.97 1002.01 1002.05 1002.13 1002.17 1002.17 1002.21 1002.25 1002.33 1002.37 1002.45 1002.53 1002.61 1002.61 1002.73 1002.77 1002.93 1003.05 1003.13 1003.25 1003.41 1003.57 1003.77 1003.93 1004.17 1004.37 1004.53 1004.73 1004.93 1005.17 1005.41 1005.65 1005.89 1006.17 1006.49 1006.81 1007.21 1007.49 1007.81 1008.09 1008.53 1009.09 1009.65 1010.09 1010.41 1010.73 1011.09 1011.61 1012.05 1012.45 1012.77 1013.01 1013.29 1013.61 1013.97 1014.33
1000.93 1001.05 1001.21 1001.29 1001.37 1001.49 1001.49 1001.61 1001.65 1001.77 1001.93 1001.97 1002.01 1002.05 1002.09 1002.21 1002.25 1002.29 1002.33 1002.33 1002.37 1002.41 1002.49 1002.57 1002.61 1002.73 1002.81 1002.93 1003.05 1003.13 1003.25 1003.41 1003.49 1003.65 1003.85 1004.01 1004.21 1004.41 1004.61 1004.81 1005.05 1005.21 1005.45 1005.65 1005.93 1006.09 1006.29 1006.49 1006.89 1007.33 1007.77 1008.13 1008.49 1008.93 1009.53 1010.05 1010.41 1010.77 1011.09 1011.49 1011.97 1012.45 1012.85 1013.21 1013.49 1013.77 1014.13 1014.45 1014.85
1001.05 1001.21 1001.33 1001.41 1001.49 1001.57 1001.65 1001.73 1001.81 1001.93 1002.01 1002.09 1002.13 1002.17 1002.21 1002.33 1002.33 1002.41 1002.49 1002.49 1002.57 1002.61 1002.61 1002.69 1002.81 1002.93 1003.01 1003.09 1003.21 1003.33 1003.49 1003.65 1003.77 1003.93 1004.09 1004.33 1004.53 1004.73 1004.93 1005.17 1005.37 1005.61 1005.85 1006.17 1006.33 1006.49 1006.61 1006.77 1007.09 1007.49 1007.93 1008.33 1008.77 1009.33 1009.93 1010.45 1010.77 1011.09 1011.49 1011.89 1012.33 1012.77 1013.17 1013.61 1013.97 1014.33 1014.61 1014.93 1015.21
1001.17 1001.33 1001.45 1001.53 1001.61 1001.65 1001.77 1001.89 1001.97 1002.09 1002.17 1002.21 1002.21 1002.29 1002.33 1002.45 1002.53 1002.61 1002.61 1002.69 1002.77 1002.77 1002.85 1002.93 1003.05 1003.17 1003.25 1003.33 1003.41 1003.57 1003.73 1003.93 1004.05 1004.21 1004.37 1004.61 1004.77 1005.01 1005.25 1005.49 1005.77 1006.09 1006.41 1006.65 1006.81 1006.93 1007.09 1007.21 1007.41 1007.77 1008.17 1008.61 1009.13 1009.69 1010.21 1010.69 1011.09 1011.49 1011.85 1012.33 1012.73 1013.05 1013.49 1013.89 1014.29 1014.61 1014.93 1015.21 1015.45
1001.33 1001.45 1001.57 1001.65 1001.73 1001.81 1001.93 1002.05 1002.17 1002.25 1002.29 1002.33 1002.37 1002.45 1002.53 1002.61 1002.69 1002.77 1002.85 1002.93 1002.97 1003.05 1003.13 1003.25 1003.33 1003.41 1003.49 1003.61 1003.69 1003.81 1004.01 1004.21 1004.37 1004.53 1004.69 1004.93 1005.09 1005.33 1005.65 1005.93 1006.33 1006.61 1006.81 1006.97 1007.13 1007.33 1007.49 1007.61 1007.77 1008.09 1008.53 1009.05 1009.61 1010.05 1010.49 1010.97 1011.45 1011.93 1012.33 1012.77 1013.17 1013.49 1013.81 1014.17 1014.49 1014.77 1015.05 1015.33 1015.57
1001.49 1001.57 1001.65 1001.77 1001.89 1002.01 1002.09 1002.21 1002.33 1002.37 1002.45 1002.49 1002.57 1002.61 1002.73 1002.81 1002.93 1003.01 1003.05 1003.09 1003.17 1003.29 1003.41 1003.53 1003.61 1003.69 1003.77 1003.89 1004.01 1004.13 1004.33 1004.49 1004.69 1004.89 1005.05 1005.29 1005.53 1005.81 1006.13 1006.45 1006.77 1006.97 1007.09 1007.21 1007.41 1007.65 1007.85 1008.01 1008.25 1008.61 1009.05 1009.49 1009.93 1010.37 1010.81 1011.33 1011.85 1012.33 1012.81 1013.21 1013.57 1013.85 1014.13 1014.37 1014.65 1014.93 1015.21 1015.41 1015.65
1001.61 1001.73 1001.85 1001.93 1002.05 1002.21 1002.33 1002.41 1002.49 1002.53 1002.61 1002.65 1002.73 1002.81 1002.93 1003.01 1003.09 1003.21 1003.25 1003.29 1003.41 1003.53 1003.65 1003.77 1003.89 1004.01 1004.09 1004.17 1004.29 1004.45 1004.65 1004.93 1005.09 1005.25 1005.49 1005.73 1006.01 1006.33 1006.65 1006.93 1007.17 1007.33 1007.45 1007.57 1007.77 1007.97 1008.21 1008.49 1008.77 1009.09 1009.45 1009.77 1010.21 1010.65 1011.21 1011.77 1012.25 1012.77 1013.21 1013.57 1013.93 1014.21 1014.41 1014.69 1014.89 1015.05 1015.25 1015.49 1015.73
1001.77 1001.89 1002.01 1002.17 1002.25 1002.37 1002.49 1002.57 1002.65 1002.73 1002.77 1002.85 1002.93 1003.05 1003.17 1003.29 1003.37 1003.45 1003.49 1003.61 1003.73 1003.89 1004.01 1004.05 1004.21 1004.37 1004.49 1004.57 1004.69 1004.89 1005.13 1005.33 1005.53 1005.73 1005.93 1006.21 1006.53 1006.89 1007.17 1007.41 1007.65 1007.81 1007.93 1008.05 1008.25 1008.49 1008.73 1008.93 1009.21 1009.53 1009.85 1010.21 1010.65 1011.21 1011.73 1012.21 1012.61 1013.05 1013.49 1013.89 1014.21 1014.45 1014.69 1014.89 1015.05 1015.25 1015.41 1015.57 1015.77
1001.97 1002.05 1002.21 1002.33 1002.49 1002.61 1002.69 1002.77 1002.81 1002.93 1003.01 1003.05 1003.21 1003.33 1003.41 1003.53 1003.65 1003.73 1003.77 1003.89 1004.05 1004.21 1004.33 1004.53 1004.73 1004.93 1005.05 1005.17 1005.33 1005.49 1005.73 1005.93 1006.13 1006.33 1006.49 1006.69 1006.93 1007.25 1007.57 1007.85 1008.05 1008.29 1008.41 1008.53 1008.73 1008.97 1009.21 1009.49 1009.77 1010.05 1010.41 1010.77 1011.21 1011.69 1012.17 1012.61 1013.05 1013.49 1013.89 1014.21 1014.45 1014.65 1014.85 1015.05 1015.21 1015.45 1015.61 1015.77 1015.89
1002.17 1002.29 1002.45 1002.57 1002.69 1002.77 1002.89 1002.93 1003.05 1003.13 1003.21 1003.33 1003.45 1003.57 1003.65 1003.73 1003.93 1004.05 1004.13 1004.25 1004.41 1004.61 1004.85 1005.05 1005.25 1005.45 1005.61 1005.77 1005.93 1006.09 1006.33 1006.53 1006.73 1006.89 1007.05 1007.21 1007.41 1007.65 1007.97 1008.29 1008.53 1008.69 1008.81 1008.97 1009.21 1009.45 1009.69 1009.93 1010.21 1010.57 1010.93 1011.33 1011.77 1012.25 1012.69 1013.09 1013.53 1013.93 1014.33 1014.61 1014.85 1015.01 1015.13 1015.21 1015.37 1015.57 1015.77 1015.93 1016.05
1002.37 1002.49 1002.61 1002.77 1002.89 1002.97 1003.05 1003.21 1003.29 1003.37 1003.49 1003.61 1003.73 1003.89 1003.97 1004.05 1004.21 1004.41 1004.57 1004.73 1004.93 1005.13 1005.37 1005.57 1005.77 1006.01 1006.17 1006.33 1006.49 1006.61 1006.85 1007.05 1007.21 1007.33 1007.49 1007.65 1007.85 1008.09 1008.41 1008.73 1009.01 1009.13 1009.21 1009.33 1009.61 1009.85 1010.09 1010.33 1010.65 1011.01 1011.37 1011.81 1012.29 1012.77 1013.21 1013.57 1013.93 1014.33 1014.73 1014.97 1015.21 1015.37 1015.53 1015.65 1015.73 1015.85 1015.93 1016.09 1016.25
1002.57 1002.69 1002.81 1002.97 1003.05 1003.21 1003.29 1003.41 1003.53 1003.65 1003.77 1003.89 1004.05 1004.21 1004.33 1004.49 1004.65 1004.85 1005.05 1005.25 1005.41 1005.65 1005.89 1006.13 1006.33 1006.53 1006.69 1006.89 1006.97 1007.17 1007.33 1007.57 1007.73 1007.85 1007.97 1008.13 1008.33 1008.61 1009.01 1009.33 1009.65 1009.69 1009.65 1009.69 1009.93 1010.21 1010.45 1010.65 1010.97 1011.29 1011.69 1012.17 1012.73 1013.21 1013.57 1013.93 1014.37 1014.73 1015.05 1015.29 1015.57 1015.73 1015.89 1016.01 1016.13 1016.21 1016.33 1016.41 1016.53
1002.77 1002.93 1003.05 1003.17 1003.29 1003.41 1003.53 1003.65 1003.77 1003.89 1004.05 1004.21 1004.33 1004.53 1004.73 1004.93 1005.09 1005.33 1005.49 1005.65 1005.81 1006.05 1006.33 1006.61 1006.81 1006.97 1007.13 1007.33 1007.53 1007.69 1007.85 1008.01 1008.21 1008.37 1008.49 1008.65 1008.89 1009.21 1009.65 1010.01 1010.29 1010.33 1010.29 1010.21 1010.29 1010.49 1010.69 1010.93 1011.21 1011.53 1011.93 1012.49 1013.05 1013.57 1013.93 1014.33 1014.77 1015.13 1015.41 1015.65 1015.93 1016.17 1016.29 1016.41 1016.57 1016.65 1016.73 1016.81 1016.93
1002.93 1003.09 1003.21 1003.33 1003.49 1003.65 1003.77 1003.93 1004.05 1004.21 1004.33 1004.53 1004.73 1004.89 1005.05 1005.29 1005.53 1005.73 1005.85 1005.97 1006.21 1006.49 1006.77 1007.01 1007.21 1007.45 1007.65 1007.85 1008.09 1008.29 1008.37 1008.49 1008.65 1008.89 1009.09 1009.25 1009.41 1009.73 1010.09 1010.53 1010.85 1011.05 1011.05 1010.93 1010.85 1010.93 1011.05 1011.21 1011.45 1011.69 1012.13 1012.77 1013.33 1013.85 1014.25 1014.65 1015.09 1015.49 1015.77 1016.05 1016.33 1016.57 1016.77 1016.93 1017.05 1017.21 1017.29 1017.41 1017.49
1003.13 1003.25 1003.41 1003.53 1003.69 1003.85 1004.01 1004.17 1004.33 1004.49 1004.69 1004.89 1005.09 1005.29 1005.45 1005.65 1005.93 1006.09 1006.21 1006.33 1006.61 1006.89 1007.21 1007.41 1007.65 1007.89 1008.09 1008.33 1008.53 1008.77 1008.93 1009.05 1009.17 1009.33 1009.65 1009.89 1010.05 1010.21 1010.53 1010.93 1011.29 1011.53 1011.65 1011.61 1011.49 1011.45 1011.53 1011.65 1011.77 1011.97 1012.33 1012.93 1013.53 1014.05 1014.49 1014.93 1015.37 1015.77 1016.05 1016.41 1016.77 1017.05 1017.21 1017.41 1017.57 1017.77 1017.97 1018.09 1018.21
1003.25 1003.41 1003.53 1003.65 1003.81 1004.01 1004.21 1004.41 1004.61 1004.77 1005.01 1005.21 1005.41 1005.65 1005.85 1006.05 1006.29 1006.49 1006.65 1006.77 1006.97 1007.21 1007.49 1007.81 1008.09 1008.37 1008.57 1008.69 1008.93 1009.21 1009.45 1009.61 1009.73 1009.89 1010.13 1010.41 1010.65 1010.81 1010.97 1011.29 1011.69 1011.97 1012.09 1012.09 1012.05 1012.01 1012.05 1012.13 1012.25 1012.37 1012.69 1013.17 1013.69 1014.21 1014.65 1015.13 1015.61 1016.05 1016.41 1016.77 1017.13 1017.45 1017.69 1017.93 1018.09 1018.33 1018.61 1018.77 1018.81
1003.33 1003.49 1003.65 1003.77 1003.93 1004.13 1004.33 1004.61 1004.81 1005.05 1005.25 1005.49 1005.77 1006.01 1006.21 1006.45 1006.69 1006.93 1007.05 1007.21 1007.41 1007.65 1007.93 1008.29 1008.61 1008.81 1009.01 1009.13 1009.33 1009.65 1009.93 1010.21 1010.37 1010.53 1010.77 1011.05 1011.29 1011.41 1011.53 1011.77 1012.09 1012.37 1012.53 1012.57 1012.53 1012.53 1012.57 1012.61 1012.73 1012.81 1013.05 1013.49 1013.93 1014.33 1014.81 1015.29 1015.77 1016.29 1016.73 1017.09 1017.41 1017.77 1018.13 1018.45 1018.61 1018.85 1019.05 1019.29 1019.37
1003.45 1003.61 1003.77 1003.93 1004.05 1004.25 1004.49 1004.73 1005.01 1005.25 1005.49 1005.77 1006.05 1006.33 1006.61 1006.81 1007.05 1007.21 1007.41 1007.65 1007.89 1008.17 1008.45 1008.77 1009.05 1009.29 1009.45 1009.61 1009.81 1010.09 1010.45 1010.77 1011.05 1011.21 1011.41 1011.61 1011.77 1011.93 1012.13 1012.25 1012.49 1012.73 1012.93 1013.05 1013.05 1013.05 1013.09 1013.17 1013.21 1013.29 1013.45 1013.77 1014.21 1014.61 1015.05 1015.45 1015.97 1016.53 1017.05 1017.45 1017.73 1018.05 1018.41 1018.77 1019.05 1019.33 1019.49 1019.69 1019.89
Wind_Speed
7 7 7 7 6 6 6 5 4 4 4 5 6 6 6 5 5 5 5 5 5 5 5 5 5 5 5 6 7 8 9 9 11 11 12 14 14 14 13 11 11 12 14 14 15 15 15 15 13 11 10 11 12 14 15 14 13 12 12 13 11 11 12 13 12 13 14 13 11
6 6 6 5 5 5 5 4 4 4 3 4 4 4 4 3 4 4 4 4 4 4 4 4 4 5 6 7 7 8 9 9 11 11 11 13 14 14 13 12 12 13 14 15 15 14 13 15 13 12 10 11 12 14 15 15 13 12 13 14 12 11 11 12 12 13 14 14 11
6 6 6 6 6 6 5 5 5 5 4 3 3 3 3 3 3 3 4 4 4 4 4 4 5 7 9 10 10 10 9 10 10 11 11 12 13 13 12 12 13 14 14 15 15 12 11 12 12 11 10 10 12 14 15 14 12 11 12 14 11 10 9 9 10 12 12 11 12
7 7 7 7 8 8 7 6 6 5 5 4 4 4 4 4 4 4 4 4 5 5 5 5 6 8 10 11 11 11 11 12 13 14 14 14 14 13 13 12 13 14 15 16 17 15 12 11 9 9 9 10 12 13 13 12 11 10 10 11 9 8 8 8 9 10 10 10 12
7 8 8 8 9 9 8 6 7 6 6 5 5 5 5 5 5 5 6 6 6 7 8 9 9 9 11 13 15 16 17 18 19 18 18 17 18 17 16 15 15 15 15 16 18 18 16 12 8 8 8 9 9 9 11 11 10 9 9 7 6 7 7 8 8 8 9 9 9
7 7 7 7 8 8 7 7 8 9 8 7 8 8 8 7 7 8 9 10 10 11 12 12 11 11 11 14 16 18 19 20 20 19 19 19 18 19 19 19 18 17 16 17 19 19 18 14 9 8 8 8 8 8 8 9 8 8 8 7 6 6 7 8 8 8 9 10 11
6 6 6 6 7 7 7 8 9 9 9 9 11 12 12 11 11 12 12 12 11 11 12 11 10 10 9 10 11 13 14 15 16 17 18 17 16 17 18 18 19 19 18 18 19 19 17 16 11 10 10 9 8 9 9 9 8 8 8 8 6 6 8 10 8 9 11 15 15
5 5 4 4 5 6 7 8 8 8 9 8 11 13 14 14 13 13 12 11 10 10 9 9 10 10 9 9 9 10 11 12 13 14 15 15 15 15 15 16 17 18 18 18 18 18 16 15 12 12 12 11 10 10 11 12 11 11 10 10 8 7 8 9 9 10 12 16 17
4 4 3 3 4 4 6 6 7 7 7 7 8 10 11 12 12 12 11 10 9 9 9 8 10 11 11 10 10 10 10 11 12 13 14 14 15 15 14 14 16 17 17 17 17 17 17 13 12 12 12 12 11 12 13 15 15 14 13 11 10 9 10 10 11 12 14 16 17
5 4 4 3 3 4 4 4 4 5 5 5 6 7 8 9 10 10 10 8 8 9 10 10 11 12 12 13 12 11 11 11 12 13 14 15 15 16 16 14 15 15 16 16 16 16 16 12 11 11 12 12 14 15 16 17 17 16 14 10 11 12 13 12 13 14 14 15 17
6 5 5 4 4 4 4 4 4 4 5 5 6 6 6 7 8 8 8 7 8 10 12 12 12 13 13 14 13 13 12 11 12 13 14 15 16 17 17 16 16 15 15 15 14 14 13 11 11 12 13 13 15 17 19 19 19 18 16 12 13 15 15 14 14 14 14 15 16
6 5 5 5 5 5 5 5 5 6 6 7 7 7 7 7 8 8 7 8 9 10 11 12 12 13 13 13 13 13 13 13 13 13 14 15 16 17 17 17 17 16 16 15 14 12 11 11 12 13 14 14 14 16 18 21 20 19 17 14 15 16 17 17 16 14 13 15 16
5 5 5 5 5 6 6 6 6 6 7 8 8 8 7 7 8 8 8 8 9 8 9 9 11 12 12 12 13 13 13 14 14 14 14 15 15 16 17 17 17 17 16 15 13 12 11 11 14 15 16 15 14 15 18 22 21 19 17 16 17 17 18 18 17 16 15 16 16
5 5 5 5 5 6 6 6 6 6 6 8 8 8 8 8 8 8 8 9 9 8 8 8 8 9 11 12 13 14 14 14 15 15 15 15 15 16 17 17 17 17 16 14 14 13 13 13 15 17 18 17 16 17 19 20 19 18 17 17 17 18 18 18 18 17 17 18 17
5 5 5 5 5 5 5 5 5 5 5 7 7 7 7 7 7 7 8 9 9 9 8 8 8 9 10 12 13 14 15 15 15 16 16 17 16 17 17 16 17 17 16 14 14 15 15 14 16 18 19 19 18 18 18 18 17 16 16 16 17 17 18 18 18 18 18 19 18
6 6 6 6 5 5 5 5 4 4 4 5 5 5 6 6 6 6 7 9 9 8 8 9 9 9 10 11 13 14 14 15 15 16 17 17 17 17 17 16 17 17 16 16 15 15 16 15 16 18 19 19 19 19 19 18 16 15 15 15 15 16 16 17 17 17 17 18 17
6 6 6 6 6 5 5 4 3 3 3 4 4 4 4 4 4 5 6 7 8 8 9 10 9 9 9 10 11 12 13 13 14 15 16 16 16 16 16 16 16 16 16 16 16 16 16 16 16 17 18 19 19 19 18 18 16 15 15 14 14 14 15 15 15 15 15 16 16
6 6 6 6 6 6 5 4 4 3 3 3 3 3 3 3 4 4 5 6 7 8 9 10 8 8 8 9 9 10 10 12 13 14 15 15 16 16 15 15 15 15 16 16 17 17 17 17 17 17 17 18 18 18 17 17 16 15 15 15 14 14 14 15 14 14 14 14 14
6 6 6 6 6 5 5 4 4 4 3 3 3 2 2 3 3 3 3 4 4 6 7 7 7 7 8 9 9 8 9 10 12 13 13 14 14 14 14 14 14 14 14 15 16 17 17 17 17 17 17 17 17 16 16 16 15 15 15 15 15 15 15 15 14 13 13 13 13
6 6 6 6 5 5 5 4 4 3 3 3 3 2 2 2 2 3 3 3 3 3 4 5 5 5 6 7 8 8 7 7 9 10 11 12 13 13 14 14 14 14 14 13 14 15 16 16 17 17 17 18 17 17 16 15 14 14 15 15 15 16 16 15 14 13 13 12 11
6 6 5 5 5 5 5 4 4 4 3 3 3 2 2 2 2 2 3 3 3 4 4 5 5 6 6 7 7 7 7 6 7 8 9 10 11 12 12 13 13 13 13 12 13 13 14 14 15 16 17 17 17 17 16 15 14 14 14 14 14 15 15 14 13 12 10 9 8
6 5 5 5 5 5 5 4 4 4 3 3 3 2 2 2 2 2 3 4 4 5 5 5 6 6 7 7 7 7 7 6 8 9 9 9 10 10 11 11 12 12 13 13 13 13 13 13 14 15 16 16 17 17 16 15 14 13 13 13 14 13 12 11 10 9 8 8 7
6 5 5 5 5 5 5 5 4 4 4 3 3 3 2 2 2 2 3 4 5 5 6 5 5 6 7 8 8 8 7 8 9 9 10 10 10 10 10 10 11 11 12 12 13 13 14 13 14 14 15 15 16 16 15 14 13 12 12 13 13 12 11 10 10 9 9 9 8
6 6 5 5 5 5 5 5 5 5 4 4 4 3 3 3 2 2 3 4 5 6 6 5 5 6 7 8 8 9 9 9 9 10 11 11 10 10 10 9 9 9 9 9 11 12 13 12 13 13 14 14 15 15 14 13 12 12 13 13 13 12 12 11 11 11 11 11 10
6 6 6 5 5 5 6 6 5 5 5 4 4 4 4 4 4 4 4 4 5 6 6 6 6 7 7 8 9 9 10 10 10 11 11 11 11 10 10 9 8 7 7 7 10 12 13 13 12 12 13 13 14 14 14 13 13 13 13 14 13 13 13 13 13 12 12 12 11
7 7 6 6 6 6 6 6 6 6 5 5 5 5 5 5 5 5 5 6 6 6 7 7 7 7 7 8 9 10 10 10 10 11 11 11 11 11 10 9 8 7 8 9 12 14 15 15 15 14 13 13 13 13 13 13 13 14 14 14 14 14 13 13 13 13 12 12 12
7 7 7 7 7 7 7 7 6 6 5 5 6 6 6 6 6 7 7 7 8 8 8 8 7 7 7 9 10 11 11 10 11 11 12 12 12 12 11 10 9 9 10 14 17 18 18 19 19 18 16 14 14 13 13 12 14 14 14 13 13 14 14 14 14 13 12 12 12
8 7 7 7 7 7 7 7 6 6 6 6 7 7 8 8 9 9 8 8 9 8 8 7 7 6 6 8 11 12 12 12 11 11 12 13 13 13 12 11 10 10 13 18 21 21 22 22 22 21 19 16 14 14 14 14 13 13 12 12 12 13 13 13 12 12 12 11 11
8 8 8 8 8 8 8 7 7 7 7 7 8 9 9 9 9 9 9 9 9 9 8 6 6 6 7 9 11 13 13 13 12 12 13 14 14 14 13 12 11 13 16 21 22 23 23 24 24 23 21 17 13 12 12 12 12 11 11 10 10 11 11 11 10 10 11 11 11
8 8 8 8 8 8 8 7 7 7 7 8 9 10 10 10 10 10 10 10 10 9 8 7 7 8 9 11 12 13 13 13 13 13 14 15 15 14 13 12 11 14 17 22 23 24 24 25 25 24 22 19 16 13 12 12 11 11 10 9 10 10 10 10 11 11 10 10 11
8 8 8 8 8 8 7 7 7 8 8 9 10 11 11 11 11 11 11 11 11 11 11 11 12 12 12 12 13 13 13 13 13 13 13 13 13 13 13 13 13 15 19 23 24 24 25 25 25 24 23 20 16 14 12 12 12 11 10 10 10 10 10 10 10 10 10 11 11
8 8 8 8 8 8 7 7 8 9 9 11 11 11 11 11 11 11 11 12 12 13 14 14 15 14 14 14 14 14 14 13 12 12 12 12 12 13 13 13 14 16 19 24 24 25 25 25 25 25 23 21 17 15 14 14 13 12 11 11 11 10 9 8 9 10 11 11 10
9 9 9 8 8 8 8 8 8 9 10 11 11 12 12 12 12 12 12 12 13 14 15 15 15 14 14 13 14 14 13 13 12 12 12 12 13 13 13 12 13 16 20 24 25 25 25 26 26 25 24 21 18 16 15 14 13 12 12 12 12 12 11 10 10 10 10 10 10
9 9 9 8 8 8 8 8 8 9 10 11 12 12 12 13 13 13 13 13 13 14 14 14 14 13 13 12 13 13 12 11 12 12 13 13 14 14 13 10 10 14 20 24 25 25 26 26 26 25 24 21 17 15 15 15 14 13 13 13 13 13 13 13 12 11 11 10 10
9 9 8 8 8 8 8 8 9 10 10 11 12 13 13 14 14 14 13 13 14 14 14 13 13 13 12 12 13 13 13 12 13 13 13 14 15 15 14 11 10 14 19 24 25 25 26 26 26 25 23 19 16 15 16 17 16 15 15 16 15 15 15 14 13 13 12 12 12
8 8 8 8 8 9 9 9 9 10 11 12 13 13 14 14 13 13 13 13 14 14 14 13 13 13 13 13 13 13 13 13 14 14 14 15 16 16 15 13 12 13 16 21 23 24 25 26 26 24 22 17 14 14 14 14 14 15 16 17 16 16 16 15 14 14 13 12 13
8 8 9 9 9 9 9 9 10 11 12 13 13 13 13 13 13 12 12 13 14 14 14 14 14 14 14 14 13 13 13 13 14 14 15 15 16 16 16 15 13 13 14 17 20 22 24 24 24 23 21 17 14 13 13 12 13 14 15 16 16 16 15 14 14 15 15 15 14
9 9 9 9 9 9 9 9 10 11 12 13 13 13 12 12 12 11 11 12 13 14 14 14 14 14 14 15 15 15 15 14 15 15 16 15 15 16 16 15 14 13 13 15 17 20 21 22 23 22 20 16 15 13 12 12 12 13 14 14 14 14 14 12 13 14 17 19 19
8 8 9 9 9 9 9 10 10 11 12 13 13 13 12 12 11 11 11 12 13 14 14 15 15 14 14 15 15 16 16 16 16 16 16 16 15 15 15 16 14 13 13 15 17 19 20 22 22 22 20 17 15 13 12 12 14 14 13 13 13 13 14 12 12 13 16 21 23
8 8 8 8 9 9 10 10 10 11 12 13 13 13 12 12 11 11 11 12 13 14 14 15 15 14 14 14 16 17 17 17 16 16 16 16 15 15 15 15 15 14 14 16 17 19 20 21 21 21 19 15 14 13 12 13 14 14 13 12 12 12 12 12 12 12 14 17 21
8 8 8 8 8 9 10 10 11 11 12 13 13 12 12 12 12 12 12 12 13 13 13 13 14 14 14 14 15 16 17 17 17 16 16 16 15 15 14 14 15 14 14 15 16 17 18 19 19 19 17 14 13 12 12 12 14 14 14 12 11 11 11 12 12 12 13 14 15
Wind_Direction
145 154 162 166 168 170 171 167 162 161 162 163 166 167 169 176 185 186 182 178 182 186 191 192 192 191 191 191 196 202 208 213 217 220 223 226 227 224 218 209 199 191 186 183 180 179 178 176 176 176 178 181 186 191 196 200 199 195 190 187 184 179 175 173 168 162 158 159 159
147 152 154 154 158 160 161 157 153 153 157 160 161 167 175 185 188 187 184 182 186 190 194 198 203 211 218 222 222 221 221 222 222 223 225 226 226 223 219 216 207 198 191 185 180 177 176 176 177 178 180 182 185 191 196 198 194 189 185 185 182 177 173 171 165 159 156 155 154
161 162 162 162 164 166 166 164 163 168 175 178 179 188 199 207 202 198 196 197 203 208 214 218 221 226 229 233 232 229 227 226 226 227 229 229 226 221 217 215 208 202 196 191 188 185 181 177 178 178 179 181 185 190 194 195 189 183 181 183 179 174 171 169 161 156 154 152 153
175 176 176 176 177 178 177 174 175 182 190 198 208 216 221 221 219 218 221 225 227 228 227 225 228 229 230 230 230 230 233 236 239 240 239 235 229 224 219 213 207 202 199 197 200 201 200 191 185 178 175 176 182 189 193 191 184 179 178 181 174 169 165 162 157 155 153 151 153
180 181 182 183 184 185 186 189 198 206 213 219 222 224 226 229 232 236 238 239 236 234 232 231 232 231 230 230 231 233 236 238 239 239 238 234 231 228 225 218 210 204 199 196 200 205 207 200 191 179 172 171 177 188 193 188 180 177 176 176 169 162 157 154 153 152 151 149 151
176 177 179 183 186 189 196 206 214 219 224 226 226 225 225 227 230 230 229 228 228 227 227 225 223 221 220 221 224 226 227 227 227 226 224 223 222 221 219 216 210 204 199 195 198 201 203 197 190 178 170 167 174 184 189 184 178 175 174 170 164 156 150 150 152 151 150 149 150
168 167 170 176 182 191 202 211 218 221 222 222 221 219 218 217 216 215 214 213 213 212 210 207 202 198 197 200 206 210 213 214 215 214 214 213 211 210 208 207 205 202 200 197 199 199 198 191 187 178 172 169 173 177 179 176 175 172 169 165 161 154 150 152 152 152 151 151 150
160 162 167 172 179 191 203 212 215 215 214 210 208 207 205 202 200 199 199 198 198 196 193 191 190 189 189 189 192 196 200 203 205 206 206 206 205 204 204 203 202 200 199 197 198 195 190 186 185 181 176 172 173 173 173 170 170 168 166 163 159 156 154 154 154 154 153 152 148
160 166 172 178 184 193 200 205 206 203 199 193 192 192 192 192 192 191 192 194 194 193 193 195 197 198 198 198 196 195 195 196 198 200 201 202 203 206 208 206 202 200 197 195 193 188 183 182 185 184 180 175 173 170 168 167 166 166 165 161 159 158 157 156 156 156 153 150 146
164 169 175 185 193 195 195 198 197 196 195 193 191 190 191 192 193 194 195 197 197 199 202 206 207 207 207 206 203 199 196 194 195 196 197 199 202 206 207 205 201 197 195 193 190 185 180 179 183 184 182 177 171 167 164 163 164 165 165 163 160 159 158 157 157 155 153 149 145
163 169 175 183 189 193 196 201 205 207 208 208 204 200 198 199 202 203 203 202 203 205 208 210 209 209 209 208 206 202 199 196 194 195 196 197 198 200 201 200 197 194 192 189 187 183 178 177 179 180 178 174 168 164 162 162 163 165 166 164 161 159 158 157 156 154 152 148 146
161 166 173 180 185 190 197 204 208 211 213 216 213 210 207 206 207 208 208 207 208 209 210 210 209 208 207 206 205 203 200 197 196 195 195 196 196 196 195 195 194 192 189 186 184 182 178 176 174 173 172 170 166 163 162 162 163 165 166 164 162 160 158 157 156 154 151 148 148
157 163 170 177 183 189 196 203 206 209 212 215 215 214 213 211 209 208 209 211 212 211 210 209 208 207 206 204 202 201 200 199 197 196 196 196 195 195 194 194 193 191 188 185 182 179 175 172 169 168 167 166 164 161 160 160 161 163 163 163 162 161 159 157 156 153 151 151 153
154 161 168 174 181 188 195 202 205 208 211 214 215 215 215 214 211 209 210 215 216 215 213 209 208 207 206 204 202 200 199 199 198 197 197 197 196 195 195 195 192 190 188 186 180 175 171 169 167 166 165 164 162 158 156 156 158 159 160 161 161 160 159 156 154 152 152 154 156
154 159 164 169 176 183 191 197 201 205 208 212 213 214 214 214 211 210 211 216 218 218 216 213 211 209 208 206 204 201 200 198 197 197 197 197 196 195 195 195 192 190 188 186 180 174 170 167 166 165 163 162 159 156 153 153 153 154 156 159 159 158 156 153 152 152 154 157 157
152 156 160 164 172 177 184 188 191 195 199 204 206 208 210 211 208 208 211 216 218 219 218 217 215 212 209 207 205 202 199 197 196 195 196 196 195 194 193 193 191 190 188 185 179 173 169 166 166 164 162 159 157 154 152 150 150 151 153 156 156 154 151 148 148 150 153 156 156
153 155 158 162 167 171 174 175 175 178 183 186 190 195 201 204 202 204 208 214 217 219 220 219 215 210 206 204 202 200 197 195 194 193 193 193 191 190 190 189 187 186 185 182 176 172 168 164 164 162 160 157 154 152 151 149 149 150 152 154 153 149 145 142 142 145 148 152 154
155 156 159 162 164 164 164 163 163 164 165 165 169 178 188 193 193 196 202 209 215 219 219 218 212 205 199 195 194 193 192 192 191 191 190 189 187 185 184 183 181 180 178 176 172 168 165 162 161 159 156 153 150 148 147 147 148 150 152 152 149 145 140 137 138 140 144 149 150
157 157 159 162 161 158 155 153 154 153 152 151 154 163 175 184 183 184 188 197 208 211 210 205 199 193 187 183 181 182 183 185 185 185 185 184 181 179 176 173 171 170 168 167 165 163 160 158 156 154 151 147 143 141 141 142 146 150 151 150 146 141 138 137 138 141 144 147 148
156 157 157 157 154 150 147 145 145 144 143 142 146 154 166 176 174 170 167 166 170 174 175 170 168 167 166 163 163 164 167 170 170 172 173 174 171 168 164 161 158 156 154 153 152 152 151 151 150 147 144 139 136 134 133 136 141 146 148 146 142 139 137 138 140 142 145 147 147
153 151 149 146 144 142 141 140 137 135 133 134 137 141 149 162 170 164 152 139 130 130 132 133 133 133 132 133 136 138 140 141 145 148 150 152 152 151 150 148 146 143 140 137 136 136 137 139 140 137 135 132 130 129 129 131 137 142 143 139 135 133 132 133 135 136 137 137 137
142 138 134 132 133 132 131 131 128 125 124 125 125 124 128 142 159 157 144 132 127 124 122 120 118 114 111 110 111 114 116 118 122 124 125 127 129 131 132 133 133 132 130 128 126 125 125 126 127 127 126 126 125 125 125 127 132 133 131 125 119 117 116 115 114 112 108 105 105
130 126 123 121 121 120 119 120 119 117 115 115 114 113 114 120 129 133 133 133 131 129 126 121 115 109 105 101 100 101 102 104 106 108 109 111 113 114 116 118 120 122 125 127 127 126 125 124 123 123 123 123 121 119 118 120 121 119 113 106 101 96 92 89 87 85 82 79 78
119 118 117 115 116 116 114 113 112 110 110 111 110 109 108 108 110 113 120 127 129 129 128 124 118 114 110 106 104 102 101 100 100 101 102 103 105 106 107 107 110 114 119 126 130 132 132 130 128 127 125 122 117 112 109 108 107 104 100 96 91 87 82 79 78 79 80 79 78
111 109 109 110 112 111 110 108 107 107 107 107 107 106 105 104 103 102 104 109 115 118 119 118 116 115 114 113 111 108 105 103 102 101 100 100 101 101 102 102 102 104 106 110 118 124 128 129 129 127 123 117 109 104 100 99 99 99 97 96 94 91 87 82 81 82 85 87 88
107 106 105 106 106 105 103 103 103 104 105 105 104 103 103 101 99 96 94 94 98 101 104 107 108 109 111 114 112 110 107 105 104 103 102 101 100 99 98 97 94 91 89 88 95 102 109 113 115 115 114 110 104 100 97 96 96 96 96 97 99 99 97 94 92 91 92 95 97
107 106 105 103 102 101 101 101 101 102 102 101 100 101 100 99 96 93 91 90 91 92 93 96 98 101 104 107 106 106 104 103 102 102 101 101 99 97 95 92 90 87 85 83 84 86 90 95 98 100 101 101 98 98 97 97 94 94 95 97 101 103 105 106 105 104 103 103 103
108 106 104 101 100 99 100 100 100 98 97 95 96 97 97 97 95 93 91 90 90 89 88 89 92 95 98 100 100 99 99 97 97 96 95 94 93 91 90 87 84 81 80 81 81 82 82 84 87 90 92 95 96 97 97 97 95 94 96 98 102 105 108 110 111 112 110 108 105
107 105 102 100 99 99 99 99 98 96 94 94 95 96 95 94 93 92 90 89 87 86 85 85 87 90 94 96 96 94 92 89 88 88 87 86 85 84 82 80 77 75 75 77 80 80 81 82 83 85 88 92 95 95 94 94 94 95 96 98 102 105 108 111 112 112 112 110 106
107 104 101 100 100 99 99 98 96 95 95 95 95 94 91 88 86 85 84 84 82 81 81 81 81 84 88 91 90 87 84 82 81 80 80 80 79 77 74 72 72 73 76 78 80 81 82 82 83 84 86 88 89 90 91 92 94 95 96 97 99 102 105 108 110 111 111 110 108
105 102 101 100 99 98 97 95 93 93 94 95 92 88 85 81 80 79 80 81 80 78 76 74 74 74 76 78 79 79 78 76 75 75 75 76 74 72 71 72 75 79 81 82 84 84 84 84 84 84 85 86 87 89 90 91 91 91 93 94 97 99 101 103 104 106 108 109 109
102 101 99 99 98 96 94 91 90 91 91 91 88 84 81 79 78 77 77 78 77 76 74 72 71 70 70 71 72 73 73 73 71 71 71 72 72 72 73 76 81 86 88 88 88 88 88 87 87 86 85 85 86 87 87 86 85 83 82 82 83 86 90 96 99 100 102 104 105
101 100 99 97 96 93 90 88 88 88 88 87 84 82 80 78 75 73 73 73 73 73 73 72 73 73 73 73 73 73 72 72 72 71 71 71 72 73 75 78 85 91 93 94 93 92 92 91 90 88 87 86 87 87 86 85 82 79 76 73 71 70 70 74 80 86 90 93 96
102 101 99 96 94 91 88 85 84 84 84 82 80 78 77 76 74 72 71 71 72 72 72 73 73 74 75 75 76 76 75 74 74 73 74 74 74 73 74 76 87 97 100 99 98 98 96 95 93 92 90 88 88 87 86 85 83 80 77 74 70 67 65 64 65 68 73 79 84
103 101 99 96 93 90 86 83 82 81 80 78 76 75 74 74 74 74 74 75 76 75 75 74 74 75 74 74 75 76 77 77 76 76 77 78 77 76 75 75 85 97 102 104 104 103 101 100 98 96 93 91 89 88 86 85 82 80 78 75 71 67 65 63 62 63 65 70 76
105 103 101 99 96 92 89 85 83 80 78 77 76 75 75 75 76 77 78 79 79 78 78 77 76 75 74 73 73 74 77 80 80 80 80 82 83 82 81 78 79 86 95 103 105 105 104 103 101 99 96 94 92 90 88 86 83 80 78 75 71 68 65 63 61 61 62 65 72
110 108 106 103 101 97 93 89 85 82 79 78 78 78 78 78 78 78 79 81 81 80 79 78 77 76 75 75 74 74 75 79 82 82 82 83 86 87 86 83 78 77 82 93 100 102 103 103 102 101 99 97 95 93 90 88 85 82 79 76 72 69 66 64 62 60 60 61 66
116 113 111 110 107 104 100 96 91 87 84 83 82 82 82 82 80 79 79 81 83 83 82 80 79 79 79 80 78 76 75 76 79 82 83 83 85 88 89 86 80 76 76 82 90 95 98 100 100 101 101 101 99 97 94 91 89 86 82 79 75 70 67 66 64 62 61 61 63
119 117 116 115 114 112 108 104 99 95 92 90 89 87 86 84 83 81 80 82 84 85 84 82 81 80 81 80 79 76 73 71 73 76 79 80 81 83 86 86 82 78 76 78 85 90 94 96 98 99 100 101 101 100 98 96 93 90 87 84 80 75 70 68 67 66 65 63 64
120 119 118 118 118 117 114 110 106 102 99 96 94 92 90 89 88 86 84 83 83 84 84 83 81 80 79 78 78 75 72 68 68 71 74 76 76 77 79 83 83 81 78 78 83 87 91 95 97 98 100 101 101 101 101 99 97 94 91 88 86 82 77 73 71 69 67 65 64
122 120 119 119 119 117 115 111 106 102 99 98 97 96 95 94 93 91 88 86 84 83 83 83 81 80 79 77 77 76 73 69 66 67 68 71 71 71 73 77 80 79 78 77 80 84 88 92 94 97 99 101 102 103 103 102 100 97 95 93 91 89 86 81 76 72 69 67 66